Location: Unspecified
(0.0000°N, 0.0000°E)
Time: 16:26:20
(UTC+00:00)

SR - Pass Details

Date: 27 November 2019
Orbit: 573 x 882 km, 66.7° (Epoch: 12 December)

Event Time Altitude Azimuth Distance (km) Brightness Sun altitude
Rises 22:47:55 0° 346° (NNW) 3,351 - -64.3°
Reaches altitude 10° 22:50:28 10° 349° (NNW) 2,380 - -64.6°
Maximum altitude 22:55:52 65° 70° (ENE) 834 - -65.3°
Drops below altitude 10° 23:00:50 10° 151° (SSE) 2,186 - -65.9°
Sets 23:03:05 0° 154° (SSE) 3,058 - -66.2°
